Tracking 19827 objects as of 23-Aug-2019
HD Live streaming from Space Station
objects crossing your sky now

ARIANE 5 DEB (SYLDA)

Track ARIANE 5 DEB (SYLDA) now!


NORAD ID: 41947
Int'l Code: 2017-007D
Perigee: 239.5 km
Apogee: 33,062.6 km
Inclination: 3.8 °
Period: 579.4 minutes
Semi major axis: 23022 km
RCS: Unknown
Launch date: February 14, 2017
Source: France (FR)
Launch site: FRENCH GUIANA (FRGUI)

Note: This is SATELLITE DEBRIS
aabbcc
Your satellite tracking list
Your tracking list is empty




NASA's NSSDC Master Catalog

Two Line Element Set (TLE):
1 41947U 17007D   19233.59361767 +.00026842 +00000-0 +45492-2 0  9990
2 41947 003.7744 250.9993 7128636 261.1375 019.0582 02.48534860021892
Source of the keplerian elements: AFSPC